Regional Weather Roundup
Issued by NWS Bismarck, ND

Home | Current Version | Previous Version | Text Only | Print | Product List | Glossary On
Versions: 1 2 3 4 5 6 7 8 9 10 11 12 13 14 15 16 17 18 19 20 21 22 23 24 25 26 27 28 29 30 31 32 33 34 35 36 37 38 39 40 41 42 43 44 45 46 47 48 49 50
000
ASUS43 KBIS 171010
RWRBIS

NWR BROADCAST TEXT
NATIONAL WEATHER SERVICE BISMARCK ND
400 AM CST TUE JAN 17 2017

NOTE: "FAIR" INDICATES FEW OR NO CLOUDS BELOW 12,000 FEET WITH NO
SIGNIFICANT WEATHER AND/OR OBSTRUCTIONS TO VISIBILITY.


CITY           SKY/WX    TMP DP  RH WIND       PRES   REMARKS
WILLISTON      FAIR       6   3  87 SW8       29.91F WCI  -7
MINOT          FAIR      17  12  80 SW12      29.92F WCI   4
MINOT AFB      NOT AVBL
BISMARCK       FAIR       7   2  80 CALM      30.01F
DICKINSON      FAIR      16   7  67 SW8       29.92F WCI   5
GARRISON         N/A      3   0  87 SE3       29.97R
HETTINGER ARPT FAIR       6   2  83 NW3       29.98F
JAMESTOWN      FAIR       8   6  92 W5        29.97S WCI   0
CARRINGTON     FAIR       9   5  85 W8        29.98S WCI  -4
HAZEN            N/A    N/A N/A N/A W3        30.01R
MANDAN         FAIR       9   7  92 W8        29.99S WCI  -4
RUGBY          FOG        0  -2  92 CALM      29.96S VSB 1/2
STANLEY        FAIR      16  12  86 SW7       29.92F WCI   6
TIOGA          FAIR      14  12  92 SW7       29.90F WCI   4
WATFORD CITY   FAIR       0  -2  92 CALM      29.93F
$$

CITY           SKY/WX    TMP DP  RH WIND       PRES   REMARKS
GRAND FORKS    FAIR       1  -4  79 SW3       29.98F
GRAND FORKS AF FAIR       3  -1  83 SW5       29.97F WCI  -6
DEVILS LAKE    FAIR       8   5  87 SW8       29.96S WCI  -4
FARGO          FAIR       5   1  83 S3        30.01S
CAVALIER         N/A      0  -4  85 S7        29.95S WCI -13
GRAFTON        FAIR       0  -4  85 S5        29.99F WCI -10
GWINNER        FAIR      10   9  92 W8        30.00S WCI  -1
ROLLA            N/A    N/A N/A N/A MISG        N/A
$$

CITY           SKY/WX    TMP DP  RH WIND       PRES   REMARKS
ABERDEEN       FAIR       0  -5  79 W6        30.02F WCI -12
MOBRIDGE       FAIR      11   6  81 N8        29.99S WCI  -1
BUFFALO          N/A     20   9  62 W9        29.89F WCI   9
RAPID CITY     FAIR      14   8  77 CALM      30.00F
GLASGOW        FAIR       9   4  80 E10       29.83F WCI  -5
SIDNEY         FAIR       8   3  80 SW14      29.92F WCI  -8
WOLF POINT     FAIR       0  -6  76 NE3       29.88F
GLENDIVE       FAIR      12   5  73 S13       29.93F WCI  -3
MILES CITY     FAIR       9   3  77 S8        29.93F WCI  -3
BAKER          FAIR      12   3  67 CALM      29.93F
$$

CITY           SKY/WX    TMP DP  RH WIND       PRES   REMARKS
BILLINGS       FAIR      26  10  50 SW26      29.91F WCI  10
GREAT FALLS    FAIR      36  15  42 SW30      29.83F
REGINA         PTCLDY    18  12  79 S15       29.71F WCI   3
ESTEVAN        PTCLDY    18  10  73 SW17      29.85F WCI   2
$$




USA.gov is the U.S. government's official web portal to all federal, state and local government web resources and services.